Location: Burgberg
(50.1428°N, 11.0671°E)
Time: 18:43:52
(UTC+00:00)

PSLV R/B - Pass Details

Date: 26 January 2020
Orbit: 503 x 581 km, 97.8° (Epoch: 15 February)

Event Time Altitude Azimuth Distance (km) Brightness Sun altitude
Rises 04:41:17 0° 12° (NNE) 2,668 7.4 -21.8°
Reaches altitude 10° 04:43:25 10° 12° (NNE) 1,763 6.5 -21.4°
Maximum altitude 04:47:12 79° 286° (WNW) 528 3.5 -20.8°
Enters shadow 04:48:08 49° 209° (SSW) 670 4.0 -20.7°
